This is the latest recevied weather packets stored in our database for station/object WA4IKQ. If no packets are shown the sender has not sent any weather packets the latest 10 day(s).
| Time | Temp. | Humidity | Pressure | Rain* | Wind** | Luminosity | Snow |
|---|---|---|---|---|---|---|---|
| 1778173679 | 33.33° C | 39% | 1015.1 hPa | 0 mm | 2.68 m/s, 176° | - | - |
| 1778173574 | 33.33° C | 39% | 1015.1 hPa | 0 mm | 2.68 m/s, 176° | - | - |
| 1778173467 | 33.33° C | 39% | 1015.2 hPa | 0 mm | 3.58 m/s, 167° | - | - |
| 1778173385 | 33.33° C | 39% | 1015.2 hPa | 0 mm | 3.58 m/s, 167° | - | - |
| 1778173274 | 33.33° C | 39% | 1015.2 hPa | 0 mm | 3.58 m/s, 167° | - | - |
| 1778173069 | 33.33° C | 40% | 1015.1 hPa | 0 mm | 4.02 m/s, 224° | - | - |
| 1778172974 | 33.33° C | 40% | 1015.1 hPa | 0 mm | 4.02 m/s, 224° | - | - |
| 1778172729 | 32.78° C | 41% | 1015 hPa | 0 mm | 1.79 m/s, 201° | - | - |
| 1778172675 | 32.78° C | 41% | 1015 hPa | 0 mm | 1.79 m/s, 201° | - | - |
| 1778172483 | 32.78° C | 41% | 1015.2 hPa | 0 mm | 3.13 m/s, 221° | - | - |
| 1778172375 | 32.78° C | 41% | 1015.2 hPa | 0 mm | 3.13 m/s, 221° | - | - |
| 1778172174 | 32.78° C | 41% | 1015.1 hPa | 0 mm | 2.24 m/s, 118° | - | - |
| 1778172072 | 32.78° C | 41% | 1015.1 hPa | 0 mm | 2.24 m/s, 118° | - | - |
| 1778171881 | 32.22° C | 42% | 1015.2 hPa | 0 mm | 0.89 m/s, 167° | - | - |
| 1778171846 | 32.22° C | 42% | 1015.2 hPa | 0 mm | 0.89 m/s, 167° | - | - |
| 1778171773 | 32.22° C | 42% | 1015.2 hPa | 0 mm | 0.89 m/s, 167° | - | - |
| 1778171598 | 32.22° C | 43% | 1015.2 hPa | 0 mm | 2.24 m/s, 152° | - | - |
| 1778171473 | 32.22° C | 43% | 1015.2 hPa | 0 mm | 2.24 m/s, 152° | - | - |
| 1778171282 | 32.22° C | 44% | 1015.3 hPa | 0 mm | 2.68 m/s, 167° | - | - |
| 1778171173 | 32.22° C | 44% | 1015.3 hPa | 0 mm | 2.68 m/s, 167° | - | - |
| 1778171092 | 31.67° C | 46% | 1015.4 hPa | 0 mm | 3.13 m/s, 170° | - | - |
| 1778170873 | 31.67° C | 46% | 1015.4 hPa | 0 mm | 3.13 m/s, 170° | - | - |
| 1778170673 | 31.67° C | 46% | 1015.5 hPa | 0 mm | 3.13 m/s, 165° | - | - |
| 1778170573 | 31.67° C | 46% | 1015.5 hPa | 0 mm | 3.13 m/s, 165° | - | - |
| 1778170472 | 31.67° C | 46% | 1015.5 hPa | 0 mm | 1.79 m/s, 208° | - | - |
* Rain latest hour (hover to see other rain measurements)
** Current wind speed in m/s (hover to see current wind gust speed)